USTRANSCOM 7745


LICZ
NAS Sigonella
Sigonella, IT
OBBI
Bahrain International Airport
Manama, BH

Route Details

Aircraft Information
Primary: Boeing 757-200SF
Backup: Not Available
Route Data
Distance: 1929nm
Sched. Duration: 4h 29m
Avg. Duration: 4h 66m (+36m)
Times Flown: 2
Recm'd Route: ERNAM5U ERNAM EMLAR N4 SALUN Q680 DBA UM872 WEJ UL604 KFA M691 LADNA LADNA1
Planned Altitude: 33,000ft
Origin Wx: LICZ 271655Z 26010KT 9999 SCT025 SCT070 18/16 Q1012 RMK BKN VIS MIN 9999 WIND THR28 27011KT WIND THR10 27012KT A2989 BLU
Dest. Wx: OBBI 271700Z 34005KT 8000 SKC 28/21 Q1014 NOSIG
Notes: USTRANSCOM CONTRACT FLIGHT

Financial History
Total Freight: 66,009lbs
Average Load: 33,005lbs/flt
Fuel Used: 77,590lbs
Avg. Fuel Used: 38,795lbs/flt
Fuel Expense: $62,072
Avg. Fuel Expense: $31,036
Avg. Fuel Cost: $0.80/lbs
Total Gross Income: $131,358
Pilot Pay: $378
Total Expenses: $14,291
Total Revenue: $52,767
Average Revenue: $65,678.95